Location: WWIN Observatory
(34.8953°N, 91.9583°W)
Time: 19:06:05
(UTC-05:00)

N. Korean satellite - Visible Passes

Search period start: 21 March 2019 00:00
Search period end: 31 March 2019 00:00
Orbit: 456 x 510 km, 97.2° (Epoch: 20 March)

Date Brightness Start Highest point End Pass type
(mag) Time Alt. Az. Time Alt. Az. Time Alt. Az.
21 Mar 9.8 06:26:30 10° NE 06:28:53 17° E 06:31:17 10° SE visible
25 Mar 9.9 06:20:56 10° ENE 06:22:59 15° E 06:25:04 10° SE visible
29 Mar 10.1 06:15:26 10° ENE 06:17:03 12° E 06:18:40 10° ESE visible
